Poteau, OK

10:57 AM CST on February 06, 2016 (GMT -0600)
Kerr

Weather History for KRKR - April, 2014

Change the Weather History Date:

Thursday, April 17, 2014

  Actual Average (KFSM) Record (KFSM)
Temperature  
Mean Temperature 52 °F 62 °F  
Max Temperature 70 °F 74 °F 95 °F (2006)
Min Temperature 34 °F 50 °F 29 °F (1951)
Degree Days  
Heating Degree Days 14 5  
Month to date heating degree days 111  
Since 1 July heating degree days 3170  
Cooling Degree Days 0 2  
Month to date cooling degree days 24  
Year to date cooling degree days 36  
Growing Degree Days 2 (Base 50)    
Moisture  
Dew Point 38 °F    
Average Humidity 59    
Maximum Humidity 93    
Minimum Humidity 30    
Precipitation  
Precipitation 0.00 in 0.14 in 1.76 in (1991)
Month to date precipitation 2.28  
Year to date precipitation 11.70  
Sea Level Pressure  
Sea Level Pressure 30.17 in    
Wind  
Wind Speed 1 mph (North)    
Max Wind Speed 12 mph    
Max Gust Speed -    
Visibility 10 miles    
Events      
T = Trace of Precipitation, MM = Missing Value Source: NWS Daily Summary

Daily Weather History Graph

Daily Weather History Graph

Search for Another Location

Airport or City:

Trip Planner

Search our weather history database for the weather conditions in past years. The results will help you decide how hot, cold, wet, or windy it might be!

Date:

Astronomy

Apr. 17, 2014 Rise Set
Actual Time 6:43 AM CDT 7:52 PM CDT
Civil Twilight 6:17 AM CDT 8:18 PM CDT
Nautical Twilight 5:46 AM CDT 8:50 PM CDT
Astronomical Twilight 5:14 AM CDT 9:22 PM CDT
Moon 10:34 PM CDT (4/17) 8:20 AM CDT (4/17)
Length of Visible Light 14h 01m
Length of Day
13h 08m
Waning Gibbous, 93% of the Moon is Illuminated
Apr 17
Waning Gibbous
Apr 22
Last Quarter
Apr 29
New
May 6
First Quarter
May 14
Full

Hourly Weather History & Observations

Time (CDT) Temp. Dew Point Humidity Pressure Visibility Wind Dir Wind Speed Gust Speed Precip Events Conditions
12:15 AM 41.9 °F 37.8 °F 85% 30.12 in 10.0 mi Calm Calm - N/A   Clear
12:35 AM 41.0 °F 37.0 °F 86% 30.12 in 10.0 mi Calm Calm - N/A   Clear
12:55 AM 41.0 °F 37.4 °F 87% 30.12 in 10.0 mi Calm Calm - N/A   Clear
1:15 AM 40.1 °F 36.3 °F 86% 30.12 in 10.0 mi Calm Calm - N/A   Clear
1:35 AM 40.1 °F 37.2 °F 89% 30.12 in 10.0 mi Calm Calm - N/A   Clear
1:55 AM 40.5 °F 37.9 °F 91% 30.12 in 10.0 mi Calm Calm - N/A   Clear
2:15 AM 38.7 °F 36.1 °F 91% 30.11 in 10.0 mi Calm Calm - N/A   Clear
2:35 AM 39.6 °F 37.6 °F 93% 30.11 in 10.0 mi Calm Calm - N/A   Clear
2:55 AM 39.2 °F 37.0 °F 92% 30.11 in 10.0 mi Calm Calm - N/A   Clear
3:15 AM 39.4 °F 37.2 °F 92% 30.11 in 10.0 mi Calm Calm - N/A   Clear
3:35 AM 38.7 °F 36.7 °F 93% 30.12 in 10.0 mi Calm Calm - N/A   Clear
3:55 AM 38.3 °F 36.1 °F 92% 30.12 in 10.0 mi Calm Calm - N/A   Clear
4:15 AM 39.7 °F 37.0 °F 90% 30.13 in 10.0 mi Calm Calm - N/A   Clear
4:35 AM 39.0 °F 36.1 °F 89% 30.13 in 10.0 mi Calm Calm - N/A   Clear
4:55 AM 36.9 °F 34.9 °F 93% 30.14 in 10.0 mi Calm Calm - N/A   Clear
5:15 AM 37.8 °F 35.2 °F 91% 30.14 in 10.0 mi Calm Calm - N/A   Clear
5:35 AM 36.9 °F 34.2 °F 90% 30.14 in 10.0 mi Calm Calm - N/A   Clear
5:55 AM 36.5 °F 34.0 °F 91% 30.14 in 10.0 mi Calm Calm - N/A   Clear
6:15 AM 37.6 °F 35.4 °F 92% 30.15 in 10.0 mi Calm Calm - N/A   Clear
6:35 AM 37.4 °F 34.9 °F 91% 30.16 in 10.0 mi Calm Calm - N/A   Clear
6:55 AM 34.9 °F 33.1 °F 93% 30.17 in 7.0 mi Calm Calm - N/A   Clear
7:15 AM 37.2 °F 34.9 °F 91% 30.17 in 10.0 mi Calm Calm - N/A   Clear
7:35 AM 38.7 °F 36.1 °F 91% 30.19 in 10.0 mi Calm Calm - N/A   Clear
7:55 AM 40.3 °F 37.4 °F 89% 30.19 in 10.0 mi Calm Calm - N/A   Clear
8:15 AM 44.1 °F 37.0 °F 76% 30.21 in 10.0 mi Calm Calm - N/A   Clear
8:35 AM 46.2 °F 38.1 °F 73% 30.21 in 10.0 mi North - - N/A   Clear
8:55 AM 48.0 °F 38.8 °F 71% 30.21 in 10.0 mi North - - N/A   Clear
9:15 AM 49.6 °F 39.7 °F 69% 30.21 in 10.0 mi Calm Calm - N/A   Clear
9:35 AM 52.0 °F 40.5 °F 65% 30.22 in 10.0 mi ENE 3.5 mph - N/A   Clear
9:55 AM 54.7 °F 39.4 °F 56% 30.22 in 10.0 mi Calm Calm - N/A   Clear
10:15 AM 57.2 °F 39.2 °F 51% 30.23 in 10.0 mi Calm Calm - N/A   Clear
10:35 AM 58.8 °F 37.4 °F 45% 30.23 in 10.0 mi Calm Calm - N/A   Clear
10:55 AM 60.8 °F 38.7 °F 44% 30.23 in 10.0 mi Calm Calm - N/A   Clear
11:15 AM 61.9 °F 39.2 °F 43% 30.22 in 10.0 mi Calm Calm - N/A   Clear
11:35 AM 62.8 °F 40.5 °F 44% 30.22 in 10.0 mi NE 3.5 mph - N/A   Clear
11:55 AM 63.1 °F 38.3 °F 40% 30.21 in 10.0 mi Calm Calm - N/A   Clear
12:15 PM 64.4 °F 40.3 °F 41% 30.20 in 10.0 mi North 4.6 mph - N/A   Clear
12:35 PM 64.9 °F 38.1 °F 37% 30.19 in 10.0 mi North 4.6 mph - N/A   Clear
12:55 PM 65.5 °F 38.8 °F 38% 30.19 in 10.0 mi North 4.6 mph - N/A   Clear
1:15 PM 65.8 °F 38.7 °F 37% 30.18 in 10.0 mi North 4.6 mph - N/A   Clear
1:35 PM 66.2 °F 37.8 °F 35% 30.18 in 10.0 mi NNE 6.9 mph - N/A   Clear
1:55 PM 66.7 °F 38.5 °F 35% 30.17 in 10.0 mi North 5.8 mph - N/A   Clear
2:15 PM 67.5 °F 36.9 °F 32% 30.17 in 10.0 mi North - - N/A   Clear
2:35 PM 68.5 °F 37.2 °F 32% 30.16 in 10.0 mi NNW 3.5 mph - N/A   Clear
2:55 PM 68.2 °F 35.8 °F 30% 30.16 in 10.0 mi North 3.5 mph - N/A   Clear
3:15 PM 69.3 °F 37.6 °F 31% 30.16 in 10.0 mi NW 3.5 mph - N/A   Scattered Clouds
3:35 PM 68.7 °F 36.7 °F 31% 30.16 in 10.0 mi NNW 4.6 mph - N/A   Mostly Cloudy
3:55 PM 68.4 °F 36.7 °F 31% 30.15 in 10.0 mi NNW 4.6 mph - N/A   Overcast
4:15 PM 68.4 °F 36.3 °F 31% 30.15 in 10.0 mi North 6.9 mph - N/A   Overcast
4:35 PM 68.9 °F 36.9 °F 31% 30.15 in 10.0 mi North 9.2 mph - N/A   Overcast
4:55 PM 67.8 °F 36.5 °F 32% 30.14 in 10.0 mi North - - N/A   Mostly Cloudy
5:15 PM 67.6 °F 37.8 °F 33% 30.14 in 10.0 mi NNE 8.1 mph - N/A   Mostly Cloudy
5:35 PM 67.8 °F 37.8 °F 33% 30.14 in 10.0 mi North - - N/A   Scattered Clouds
5:55 PM 66.6 °F 38.5 °F 36% 30.14 in 10.0 mi North - - N/A   Scattered Clouds
6:15 PM 66.7 °F 37.6 °F 34% 30.14 in 10.0 mi North 11.5 mph - N/A   Scattered Clouds
6:35 PM 65.5 °F 37.6 °F 36% 30.15 in 10.0 mi North 9.2 mph - N/A   Mostly Cloudy
6:55 PM 65.5 °F 37.8 °F 36% 30.15 in 10.0 mi North 6.9 mph - N/A   Overcast
7:15 PM 65.1 °F 38.1 °F 37% 30.16 in 10.0 mi NNE 3.5 mph - N/A   Overcast
7:35 PM 64.4 °F 39.6 °F 40% 30.16 in 10.0 mi Calm Calm - N/A   Overcast
7:55 PM 62.6 °F 40.8 °F 45% 30.17 in 10.0 mi North 3.5 mph - N/A   Overcast
8:15 PM 63.0 °F 38.8 °F 41% 30.17 in 10.0 mi North 4.6 mph - N/A   Overcast
8:35 PM 62.4 °F 41.4 °F 46% 30.17 in 10.0 mi North - - N/A   Overcast
8:55 PM 61.7 °F 41.9 °F 48% 30.17 in 10.0 mi North - - N/A   Overcast
9:15 PM 61.5 °F 42.1 °F 49% 30.19 in 10.0 mi Calm Calm - N/A   Overcast
9:35 PM 60.8 °F 42.1 °F 50% 30.19 in 10.0 mi North - - N/A   Overcast
9:55 PM 61.0 °F 41.0 °F 48% 30.20 in 10.0 mi NNW 5.8 mph - N/A   Mostly Cloudy
10:15 PM 60.4 °F 40.3 °F 47% 30.19 in 10.0 mi North - - N/A   Scattered Clouds
10:35 PM 60.1 °F 39.9 °F 47% 30.19 in 10.0 mi North - - N/A   Clear
10:55 PM 59.9 °F 40.1 °F 48% 30.19 in 10.0 mi Calm Calm - N/A   Clear
11:15 PM 57.2 °F 41.2 °F 55% 30.19 in 10.0 mi North 3.5 mph - N/A   Clear
11:35 PM 56.1 °F 41.0 °F 57% 30.19 in 10.0 mi Calm Calm - N/A   Clear
11:55 PM 55.8 °F 41.0 °F 58% 30.19 in 10.0 mi North 4.6 mph - N/A   Clear